Home > Weather > Marigot > Past weeks

Weather for the Past 2 Weeks in Marigot, Saint Martin

Now
75 °F

Passing clouds.


Feels Like: 76 °F
Forecast: 77 / 82 °F
Wind: 7 mph from East

Location: Juliana Airport - Saint Maarten

Current Time: Feb 11, 2016 at 6:06:59 AM

Latest Report: Feb 11, 2016 at 5:00 AM


Visibility: N/A

Pressure: 30.07 "Hg

Humidity: 78%

Dew point: 68 °F

Location of MarigotLocation

Historic Weather in Marigot — Graph

°F

Marigot Temperature Yesterday

Maximum temperature yesterday: 82 °F (at 12:00 PM)
Minimum temperature yesterday: 77 °F (at 3:00 AM)
Average temperature yesterday: 80 °F

High & Low Weather Summary for the Past Weeks

 TemperatureHumidityPressure
High84 °F (Jan 27, 1:00 PM)100% (Jan 30, 1:00 AM)30.15 "Hg (Jan 30, 1:00 AM)
Low73 °F (Jan 30, 12:00 AM)54% (Feb 4, 3:00 PM)29.86 "Hg (Feb 4, 3:00 PM)
Average79 °F74%30.04 "Hg
* Reported Jan 27 2:00 AM — Feb 11 2:00 AM, Marigot, Weather by CustomWeather, © 2016

Note: Actual official high and low records may vary slightly from our data, if they occured in-between our weather recording intervals... More about our weather records

Advertising

Marigot Weather History for the Previous 24 Hours

 ConditionsComfort  
Time TempWeatherWind HumidityBarometerVisibility
2:00 AM
Thu, Feb 11
75 °FPartly cloudy.8 mph78%30.07 "HgN/A
12:00 AM79 °FPassing clouds.7 mph74%30.12 "HgN/A
10:00 PM
Wed, Feb 10
79 °FPassing clouds.5 mph74%30.12 "HgN/A
9:00 PM79 °FPassing clouds.8 mph74%30.09 "HgN/A
8:00 PM79 °FPassing clouds.8 mph74%30.09 "HgN/A
7:00 PM79 °FPassing clouds.9 mph70%30.07 "HgN/A
5:00 PM81 °FPassing clouds.10 mph66%30.04 "HgN/A
4:00 PM82 °FPassing clouds.10 mph66%30.04 "HgN/A
3:00 PM82 °FPassing clouds.10 mph62%30.04 "HgN/A
2:00 PM82 °FPassing clouds.12 mph62%30.07 "HgN/A
1:00 PM82 °FScattered clouds.12 mph66%30.09 "HgN/A
12:00 PM82 °FScattered clouds.10 mph70%30.12 "HgN/A
11:00 AM81 °FSprinkles. Scattered clouds.16 mph70%30.12 "HgN/A
10:00 AM81 °FPassing clouds.13 mph70%30.15 "HgN/A
9:00 AM81 °FScattered showers. Scattered clouds.9 mph70%30.12 "HgN/A
8:00 AM79 °FScattered clouds.9 mph74%30.12 "HgN/A
7:00 AM79 °FPassing clouds.13 mph74%30.09 "HgN/A
6:00 AM79 °FPassing clouds.14 mph74%30.07 "HgN/A
Weather by CustomWeather, © 2016

See weather overviewHow to use our weather pages